TimeCDT,TemperatureF,Dew PointF,Humidity,Sea Level PressureIn,VisibilityMPH,Wind Direction,Wind SpeedMPH,Gust SpeedMPH,PrecipitationIn,Events,Conditions,WindDirDegrees,DateUTC
12:51 AM,51.1,28.0,41,30.17,10.0,NNW,9.2,-,N/A,,Clear,330,2013-05-12 05:51:00
1:51 AM,50.0,27.0,41,30.17,10.0,NW,6.9,-,N/A,,Clear,320,2013-05-12 06:51:00
2:51 AM,46.0,28.9,51,30.16,10.0,WNW,5.8,-,N/A,,Clear,300,2013-05-12 07:51:00
3:51 AM,45.0,30.0,56,30.17,10.0,WNW,5.8,-,N/A,,Clear,290,2013-05-12 08:51:00
4:51 AM,43.0,32.0,65,30.19,10.0,West,4.6,-,N/A,,Clear,280,2013-05-12 09:51:00
5:51 AM,43.0,32.0,65,30.20,10.0,WNW,3.5,-,N/A,,Clear,300,2013-05-12 10:51:00
6:51 AM,46.0,35.1,66,30.21,10.0,West,5.8,-,N/A,,Clear,280,2013-05-12 11:51:00
7:51 AM,50.0,33.1,52,30.22,10.0,WNW,6.9,-,N/A,,Clear,300,2013-05-12 12:51:00
8:51 AM,53.1,32.0,45,30.23,10.0,NNW,8.1,-,N/A,,Clear,330,2013-05-12 13:51:00
9:51 AM,55.9,28.9,36,30.24,10.0,NW,8.1,-,N/A,,Partly Cloudy,310,2013-05-12 14:51:00
10:51 AM,57.0,25.0,29,30.24,10.0,NW,13.8,21.9,N/A,,Partly Cloudy,310,2013-05-12 15:51:00
11:51 AM,59.0,28.0,31,30.24,10.0,NW,13.8,19.6,N/A,,Clear,320,2013-05-12 16:51:00
12:51 PM,60.1,27.0,28,30.22,10.0,WNW,8.1,-,N/A,,Partly Cloudy,290,2013-05-12 17:51:00
1:51 PM,60.1,28.9,31,30.22,10.0,NW,8.1,18.4,N/A,,Partly Cloudy,310,2013-05-12 18:51:00
2:51 PM,62.1,28.9,29,30.20,10.0,West,13.8,19.6,N/A,,Partly Cloudy,280,2013-05-12 19:51:00
3:51 PM,62.1,28.0,28,30.18,10.0,West,16.1,20.7,N/A,,Partly Cloudy,280,2013-05-12 20:51:00
4:51 PM,63.0,28.0,27,30.17,10.0,WNW,15.0,21.9,N/A,,Scattered Clouds,290,2013-05-12 21:51:00
5:51 PM,62.1,28.9,29,30.17,10.0,West,5.8,16.1,N/A,,Scattered Clouds,280,2013-05-12 22:51:00
6:51 PM,60.1,27.0,28,30.16,10.0,NW,10.4,-,N/A,,Scattered Clouds,310,2013-05-12 23:51:00
7:51 PM,55.9,30.0,37,30.16,10.0,WNW,5.8,-,N/A,,Mostly Cloudy,300,2013-05-13 00:51:00
8:51 PM,55.9,28.9,36,30.17,10.0,NNW,3.5,-,N/A,,Scattered Clouds,330,2013-05-13 01:51:00
9:51 PM,54.0,30.0,40,30.19,10.0,Calm,Calm,-,N/A,,Partly Cloudy,0,2013-05-13 02:51:00
10:51 PM,51.1,33.1,50,30.19,10.0,Calm,Calm,-,N/A,,Clear,0,2013-05-13 03:51:00
11:51 PM,48.0,34.0,58,30.19,10.0,WSW,3.5,-,N/A,,Clear,240,2013-05-13 04:51:00